Simultaneous Nadir Overpasses (SNOs) Predictions

Prediction of SNOs between GOES-15 and NOAA-20 Satellite Orbit:

Table of predicted SNOs for the next 14.0 days since TLE Epoch: 3/16/2024
Index Date Time (GOES-15) GOES-15 Lat,Lon NOAA-20 Lat,Lon Distance(km) Time Diff (sec)
1 03/16/2024 09:24:00 -0.07, 61.24 -0.17, 60.73 58.15 80
2 03/17/2024 09:05:14 -0.07, 61.24 0.82, 65.26 458.72 80
3 03/18/2024 21:27:01 0.08, 61.16 0.32, 59.99 132.68 80
4 03/19/2024 21:05:36 0.08, 61.16 -0.68, 64.53 384.08 80
5 03/21/2024 09:30:11 -0.09, 61.24 -0.52, 59.24 228.24 80
6 03/22/2024 09:08:46 -0.09, 61.24 0.48, 63.78 288.48 80
7 03/23/2024 21:30:33 0.09, 61.17 0.66, 58.50 303.11 80
8 03/24/2024 21:14:28 0.09, 61.17 -0.35, 63.04 213.55 80
9 03/26/2024 09:36:22 -0.09, 61.25 -0.90, 57.76 399.06 80
10 03/27/2024 09:14:57 -0.09, 61.26 0.16, 62.28 117.28 80
11 03/28/2024 21:36:44 0.09, 61.19 1.03, 57.02 475.36 80
12 03/29/2024 21:20:38 0.09, 61.20 0.02, 61.56 40.56 80
